Date String (YYYY-MM-DD hh:mm:ss) UTC,Instrument flags,Ambient pressure (hPa),Sample flow (lpm),Bypass flow (lpm),Sample temperature (°C),Ambient temperature (°C),ASC tube jacket temperature (°C),LED temperature (°C),Box temperature (°C),Sample RH (%),Span deviation,Mass concentration (μg/m³),Mass concentration (μg/m³),Mass concentration (μg/m³)
DateTimeUTC,F1_M11,P_M11,Q1_M11,Q2_M11,T1_M11,T2_M11,T3_M11,T4_M11,T5_M11,U1_M11,ZSPAN_M11,X0_M11,X2_M11,X1_M11
2022-05-06 17:00:00,,0821.0,5.01,0.00,29.9,28.8,00.0,38.7,31.7,09.0,0000.0,0011.41,0003.92,0002.06
2022-05-06 17:01:00,,0821.0,4.99,0.00,29.9,28.9,00.0,38.7,31.7,09.3,0000.0,0011.12,0003.89,0002.06
2022-05-06 17:02:00,,0821.0,5.00,0.00,29.9,28.9,00.0,38.8,31.8,09.4,0000.0,0011.82,0003.90,0002.05
2022-05-06 17:03:00,,0821.0,5.00,0.00,30.0,28.9,00.0,38.8,31.8,09.1,0000.0,0012.40,0003.88,0002.03
2022-05-06 17:04:00,,0821.0,5.00,0.00,30.0,29.0,00.0,38.8,31.8,09.4,0000.0,0012.41,0003.89,0002.02
2022-05-06 17:05:00,,0821.0,5.00,0.00,30.0,28.3,00.0,38.8,31.7,09.7,0000.0,0012.32,0003.87,0001.99
2022-05-06 17:06:00,,0821.0,5.00,0.00,29.9,26.3,00.0,38.8,31.2,09.6,0000.0,0012.39,0003.88,0001.98
2022-05-06 17:07:00,,0821.0,5.01,0.00,29.8,25.9,00.0,38.8,31.1,09.8,0000.0,0012.38,0003.86,0001.95
2022-05-06 17:08:00,,0821.0,4.99,0.00,29.7,26.3,00.0,38.7,31.2,09.5,0000.0,0012.59,0003.84,0001.93
2022-05-06 17:09:00,,0821.0,5.01,0.00,29.7,26.7,00.0,38.7,31.2,09.0,0000.0,0013.09,0003.83,0001.91
2022-05-06 17:10:00,,0821.0,4.99,0.00,29.6,27.1,00.0,38.6,31.2,09.0,0000.0,0012.90,0003.80,0001.91
2022-05-06 17:11:00,,0820.9,5.01,0.00,29.6,27.4,00.0,38.6,31.2,08.9,0000.0,0012.51,0003.74,0001.90
2022-05-06 17:12:00,,0821.0,5.00,0.00,29.6,27.7,00.0,38.6,31.3,09.3,0000.0,0012.46,0003.71,0001.87
2022-05-06 17:13:00,,0821.0,4.99,0.00,29.7,27.9,00.0,38.6,31.3,09.5,0000.0,0011.69,0003.69,0001.85
2022-05-06 17:14:00,,0820.9,5.01,0.00,29.7,28.1,00.0,38.6,31.3,08.8,0000.0,0011.06,0003.68,0001.86
2022-05-06 17:15:00,,0820.8,5.00,0.00,29.7,28.2,00.0,38.6,31.3,09.2,0000.0,0011.09,0003.71,0001.88
2022-05-06 17:16:00,,0820.9,4.98,0.00,29.7,28.3,00.0,38.6,31.4,09.1,0000.0,0011.28,0003.73,0001.88
2022-05-06 17:17:00,,0820.8,5.01,0.00,29.7,28.4,00.0,38.6,31.5,09.3,0000.0,0011.23,0003.74,0001.88
2022-05-06 17:18:00,,0820.8,5.01,0.00,29.7,28.5,00.0,38.6,31.5,09.5,0000.0,0011.31,0003.78,0001.89
2022-05-06 17:19:00,,0820.8,5.00,0.00,29.8,28.6,00.0,38.6,31.5,09.5,0000.0,0011.09,0003.84,0001.90
2022-05-06 17:20:00,,0820.9,5.00,0.00,29.8,28.7,00.0,38.6,31.5,09.3,0000.0,0009.66,0003.84,0001.90
2022-05-06 17:21:00,,0820.8,5.01,0.00,29.8,28.7,00.0,38.6,31.6,08.9,0000.0,0009.72,0003.92,0001.91
2022-05-06 17:22:00,,0820.9,5.01,0.00,29.8,28.8,00.0,38.6,31.6,09.1,0000.0,0009.92,0003.96,0001.94
2022-05-06 17:23:00,,0820.9,4.98,0.00,29.8,28.8,00.0,38.7,31.7,08.6,0000.0,0009.50,0003.94,0001.97
2022-05-06 17:24:00,,0820.9,5.00,0.00,29.9,28.4,00.0,38.7,31.5,08.6,0000.0,0009.65,0003.94,0001.99
2022-05-06 17:25:00,,0820.9,5.00,0.00,29.8,26.3,00.0,38.7,31.1,09.2,0000.0,0010.05,0003.95,0001.99
2022-05-06 17:26:00,,0820.9,4.99,0.00,29.6,25.6,00.0,38.6,30.9,08.9,0000.0,0010.43,0003.92,0001.97
2022-05-06 17:27:00,,0820.9,5.01,0.00,29.6,26.0,00.0,38.6,31.0,09.2,0000.0,0010.53,0003.90,0001.96
2022-05-06 17:28:00,,0821.0,4.99,0.00,29.5,26.5,00.0,38.5,31.1,09.5,0000.0,0010.32,0003.85,0001.95
2022-05-06 17:29:00,,0821.0,5.01,0.00,29.5,26.9,00.0,38.5,31.1,09.2,0000.0,0010.22,0003.87,0001.96
2022-05-06 17:30:00,,0821.0,5.01,0.00,29.5,27.3,00.0,38.5,31.2,09.3,0000.0,0010.26,0003.82,0001.95
2022-05-06 17:31:00,,0820.9,5.00,0.00,29.5,27.6,00.0,38.5,31.2,08.8,0000.0,0010.70,0003.82,0001.95
2022-05-06 17:32:00,,0820.9,5.00,0.00,29.5,27.8,00.0,38.5,31.3,09.2,0000.0,0010.82,0003.74,0001.93
2022-05-06 17:33:00,,0820.8,4.99,0.00,29.6,28.1,00.0,38.5,31.3,09.7,0000.0,0010.67,0003.72,0001.91
2022-05-06 17:34:00,,0820.9,5.02,0.00,29.6,28.2,00.0,38.5,31.4,09.3,0000.0,0010.85,0003.73,0001.88
2022-05-06 17:35:00,,0820.9,4.98,0.00,29.6,28.4,00.0,38.5,31.4,08.7,0000.0,0011.00,0003.77,0001.87
2022-05-06 17:36:00,,0820.9,5.00,0.00,29.7,28.5,00.0,38.5,31.5,08.7,0000.0,0010.83,0003.75,0001.88
2022-05-06 17:37:00,,0820.8,5.02,0.00,29.7,28.6,00.0,38.5,31.5,08.5,0000.0,0010.93,0003.77,0001.89
2022-05-06 17:38:00,,0820.9,5.00,0.00,29.7,28.7,00.0,38.5,31.6,08.9,0000.0,0010.63,0003.78,0001.89
2022-05-06 17:39:00,,0820.9,5.00,0.00,29.8,28.8,00.0,38.5,31.6,09.4,0000.0,0010.92,0003.82,0001.89
2022-05-06 17:40:00,,0820.9,5.00,0.00,29.8,28.9,00.0,38.6,31.7,10.0,0000.0,0011.12,0003.79,0001.90
2022-05-06 17:41:00,,0820.9,4.99,0.00,29.8,29.0,00.0,38.6,31.8,09.0,0000.0,0011.32,0003.75,0001.90
2022-05-06 17:42:00,,0820.9,4.99,0.00,29.9,28.7,00.0,38.6,31.7,09.9,0000.0,0010.99,0003.78,0001.91
2022-05-06 17:43:00,,0820.9,5.01,0.00,29.8,26.8,00.0,38.6,31.3,10.2,0000.0,0010.67,0003.79,0001.94
2022-05-06 17:44:00,,0820.8,5.00,0.00,29.7,25.8,00.0,38.6,31.1,10.0,0000.0,0010.52,0003.79,0001.96
2022-05-06 17:45:00,,0820.9,5.01,0.00,29.6,26.3,00.0,38.6,31.2,09.4,0000.0,0010.31,0003.75,0001.97
2022-05-06 17:46:00,,0820.9,5.00,0.00,29.6,26.7,00.0,38.5,31.2,09.3,0000.0,0010.02,0003.69,0001.97
2022-05-06 17:47:00,,0820.8,4.99,0.00,29.6,27.1,00.0,38.5,31.3,09.1,0000.0,0010.84,0003.71,0001.97
2022-05-06 17:48:00,,0820.8,5.01,0.00,29.6,27.4,00.0,38.5,31.3,08.8,0000.0,0010.66,0003.69,0001.97
2022-05-06 17:49:00,,0820.9,5.00,0.00,29.6,27.7,00.0,38.5,31.4,09.6,0000.0,0010.59,0003.68,0001.97
2022-05-06 17:50:00,,0821.0,5.00,0.00,29.6,28.0,00.0,38.5,31.4,09.3,0000.0,0010.35,0003.69,0001.98
2022-05-06 17:51:00,,0821.0,5.01,0.00,29.7,28.2,00.0,38.5,31.5,09.4,0000.0,0010.17,0003.69,0001.99
2022-05-06 17:52:00,,0820.9,4.99,0.00,29.7,28.4,00.0,38.5,31.5,09.7,0000.0,0010.24,0003.76,0001.98
2022-05-06 17:53:00,,0820.9,5.01,0.00,29.7,28.5,00.0,38.5,31.5,10.3,0000.0,0010.37,0003.75,0001.97
2022-05-06 17:54:00,,0820.8,5.00,0.00,29.8,28.6,00.0,38.5,31.6,09.6,0000.0,0010.37,0003.74,0001.97
2022-05-06 17:55:00,,0820.8,5.00,0.00,29.8,28.7,00.0,38.6,31.6,09.1,0000.0,0010.50,0003.72,0001.95
2022-05-06 17:56:00,,0820.8,4.99,0.00,29.8,28.8,00.0,38.6,31.7,09.5,0000.0,0010.81,0003.79,0001.97
2022-05-06 17:57:00,,0820.9,5.00,0.00,29.9,28.8,00.0,38.6,31.7,09.2,0000.0,0011.16,0003.84,0001.96
2022-05-06 17:58:00,,0820.8,5.02,0.00,29.8,27.7,00.0,38.6,31.5,09.0,0000.0,0010.34,0003.83,0001.95
2022-05-06 17:59:00,,0820.8,4.99,0.00,29.7,25.8,00.0,38.6,31.0,09.1,0000.0,0010.08,0003.81,0001.95
